Regional Weather Roundup
Issued by NWS

Home | Current Version | Previous Version | Text Only | Print | Product List | Glossary Off
Versions: 1 2 3 4 5 6 7 8 9 10 11 12 13 14 15 16 17 18 19 20 21 22 23 24 25 26 27 28 29 30 31 32 33 34 35 36 37 38 39 40 41 42 43 44 45

000
ASUS45 KBOU 240110
RWRCO

WEATHER ROUNDUP FOR COLORADO
NATIONAL WEATHER SERVICE PUEBLO CO
600 PM MST FRI FEB 23 2018

NOTE: "FAIR" INDICATES FEW OR NO CLOUDS BELOW 12000 FEET WITH NO
SIGNIFICANT WEATHER AND/OR OBSTRUCTIONS TO VISIBILITY.

COZ001>005-013-030-031-240200-
...NORTHWEST COLORADO...

CITY           SKY/WX    TMP DP  RH WIND       PRES   REMARKS
CRAIG          CLOUDY    27  17  66 W6        29.87R WCI  20
HAYDEN         CLOUDY    25  15  66 SW12      29.86R WCI  14
MEEKER         CLOUDY    28  14  55 SW9       29.87R WCI  19
RABBIT EARS PA NOT AVBL
STEAMBOAT SPGS CLOUDY    25  15  65 SW5       29.85R WCI  19
WALDEN         FAIR      19  10  68 NW3       29.82R
$$

COZ006>008-011-240200-
...WEST CENTRAL VALLEYS...

CITY           SKY/WX    TMP DP  RH WIND       PRES   REMARKS
GRAND JUNCTION CLOUDY    34  26  72 W13       29.93R WCI  25
MONTROSE       CLOUDY    28  21  75 E5        29.96S WCI  23
EAGLE          NOT AVBL
RIFLE          CLOUDY    27  24  89 SE6       29.93R WCI  20
DELTA          NOT AVBL
NUCLA          CLOUDY    27  23  86 SE5       29.97R WCI  21
$$

COZ017>023-064>068-240200-
...SOUTHWEST COLORADO...

CITY           SKY/WX    TMP DP  RH WIND       PRES   REMARKS
DURANGO        CLOUDY    30  22  72 E5        29.87S WCI  25
CORTEZ         FLURRIES  26  23  88 NE5       29.95R WCI  20
PAGOSA SPRINGS FAIR      27  14  58 W6        29.87S WCI  20
TELLURIDE      LGT SNOW  19  15  84 W7        29.86R WCI   9
WOLF CREEK PAS CLOUDY     9   9 100 S20G30    29.82S WCI -11
$$

COZ009-010-012-014-032>034-037-058>063-240200-
...CENTRAL COLORADO...

CITY           SKY/WX    TMP DP  RH WIND       PRES   REMARKS
ASPEN          CLOUDY    22  18  85 NW14G20   29.83R FOG     WCI   9
BUENA VISTA    MOCLDY    30  -1  25 S10       29.80S WCI  21
COPPER MTN     CLOUDY    14   1  57 S16G22    29.76R WCI  -2
BERTHOUD PASS  LGT SNOW   3  -8  60 W6        29.75S VSB 1   WCI  -8
COTTONWOOD PAS CLOUDY    28   0  29 SW10G17   29.79R WCI  19
GUNNISON       CLOUDY    25  16  68 SW12      29.84R WCI  14
KREMMLING      CLOUDY    32  10  40 SW6       29.83R WCI  26
LEADVILLE      CLOUDY    16   8  71 SW12      29.77R HAZE    WCI   3
MONARCH PASS   MOCLDY    10   1  67 SW31G43   29.87R WCI -12
SALIDA         MOCLDY    35   2  25 S16G24    29.88F WCI  25
SUNLIGHT       SNOW       9   5  85 SW12G21   29.82S VSB 1/4 WCI  -6
WILKERSON PASS PTCLDY    14   5  67 SW10G20   29.80S WCI   1
$$

COZ069>075-240200-
...SAN LUIS VALLEY/SANGRE DE CRISTO MOUNTAINS...

CITY           SKY/WX    TMP DP  RH WIND       PRES   REMARKS
ALAMOSA        PTCLDY    32   8  36 SW12      29.83S WCI  23
DEL NORTE      CLOUDY    29   9  44 W8        29.84S WCI  21
LA VETA PASS   CLOUDY    27   9  46 S10G28    29.94F WCI  17
SAGUACHE       PTCLDY    30   7  37 W10G18    29.86S WCI  21
$$

COZ035-036-038>040-240200-
...NORTHERN COLORADO FRONT RANGE...

CITY           SKY/WX    TMP DP  RH WIND       PRES   REMARKS
DENVER INTL AP MOCLDY    24  20  84 NW12      29.89S FOG     WCI  13
DMNS CITY PARK NOT AVBL
AURORA         CLOUDY    24  21  88 NW8       29.90R FOG     WCI  15
FRONT RANGE AP MOCLDY    27  25  93 NW14      29.90R FOG     WCI  15
ERIE MUNI ARPT LGT SNOW  26  23  87 NW3       29.98R
BOULDER MUN AP LGT SNOW  25  25 100 CALM      29.92S VSB 3/4
CENTENNIAL     CLOUDY    25  18  74 N8        29.89R WCI  16
BROOMFIELD     LGT SNOW  25  21  86 NW12      29.90S WCI  14
LOVELAND       LGT SNOW  25  21  86 N15       29.93F VSB 1   WCI  12
LONGMONT       LGT SNOW  28  25  87 N5        29.94F VSB 1   WCI  23
$$

COZ041-046-047-076>085-087-088-240200-
...PIKES PEAK/PALMER DIVIDE AND SOUTHERN FOOTHILLS...

CITY           SKY/WX    TMP DP  RH WIND       PRES   REMARKS
COLO. SPRINGS  PTCLDY    27  18  69 SE13      29.88R WCI  16
A. F. ACADEMY  PTCLDY    29  11  46 S16       29.85R WCI  18
SCHRIEVER AFB  NOT AVBL
CHEYENNE MTN   NOT AVBL
ELLICOTT         N/A    N/A N/A N/A SE9       29.88R
FALCON         FAIR      25  15  67 SE8       29.88R WCI  16
FORT CARSON    PTCLDY    26  19  73 SE12      29.88R WCI  16
LIMON          CLOUDY    25  21  85 SE18G28   29.92R WCI  11
MONUMENT HILL  CLOUDY    21  21 100 NW7       29.88R FOG     WCI  13
CANON CITY     CLEAR     32  19  59 E9        29.89R WCI  24
WALSENBURG     FAIR      28  21  74 NE7       29.87R WCI  21
TRINIDAD       PTCLDY    30  21  69 N7        29.85S WCI  23
$$

COZ042>045-048>051-090-091-240200-
...NORTHEAST COLORADO...

CITY           SKY/WX    TMP DP  RH WIND       PRES   REMARKS
GREELEY ARPT   CLOUDY    28  22  78 N10       29.94S WCI  19
AKRON          CLOUDY    28  23  81 E15G24    29.94F WCI  16
BURLINGTON     CLOUDY    28  23  81 SE12      29.99S WCI  18
WRAY           CLOUDY    32  23  69 E13       30.02S WCI  22
YUMA           NOT AVBL
STERLING       FAIR      32  19  59 E9        29.98S WCI  24
HOLYOKE        CLOUDY    30  21  69 E13       30.05R WCI  20
FORT MORGAN    FAIR      29  20  67 E14       29.95R WCI  18
$$

COZ086-089-092>099-240200-
...SOUTHEAST COLORADO...

CITY           SKY/WX    TMP DP  RH WIND       PRES   REMARKS
PUEBLO         CLOUDY    30  22  72 E7        29.92S WCI  23
LA JUNTA       CLOUDY    30  22  72 E21       29.92F WCI  17
LAMAR          CLOUDY    29  24  82 E14       29.96F WCI  18
SPRINGFIELD      N/A     26  26 100 E15       29.92S WCI  14
$$





USA.gov is the U.S. government's official web portal to all federal, state and local government web resources and services.